Sacramento, CA

7:08 AM PDT on July 24, 2016 (GMT -0700)
Sacramento International

Weather History for KSMF - August, 2013

Change the Weather History Date:

Friday, August 23, 2013

  Actual Average Record
Temperature  
Mean Temperature 72 °F -  
Max Temperature 90 °F 90 °F 102 °F (1996)
Min Temperature 55 °F 56 °F 51 °F (1973)
Cooling Degree Days 8    
Growing Degree Days 22 (Base 50)    
Moisture  
Dew Point 54 °F    
Average Humidity 61    
Maximum Humidity 90    
Minimum Humidity 26    
Precipitation  
Precipitation 0.00 in - - ()
Sea Level Pressure  
Sea Level Pressure 29.81 in    
Wind  
Wind Speed 9 mph (SSE)    
Max Wind Speed 13 mph    
Max Gust Speed -    
Visibility 10 miles    
Events      
Averages and records for this station are not official NWS values.
T = Trace of Precipitation, MM = Missing Value Source: NWS Daily Summary

Daily Weather History Graph

Daily Weather History Graph

Search for Another Location

Airport or City:

Trip Planner

Search our weather history database for the weather conditions in past years. The results will help you decide how hot, cold, wet, or windy it might be!

Date:

Astronomy

Aug. 23, 2013 Rise Set
Actual Time 6:27 AM PDT 7:49 PM PDT
Civil Twilight 6:00 AM PDT 8:16 PM PDT
Nautical Twilight 5:26 AM PDT 8:50 PM PDT
Astronomical Twilight 4:51 AM PDT 9:24 PM PDT
Moon 9:14 PM PDT (8/23) 9:26 AM PDT (8/23)
Length of Visible Light 14h 16m
Length of Day
13h 21m
Waning Gibbous, 91% of the Moon is Illuminated
Aug 23
Waning Gibbous
Aug 28
Last Quarter
Sep 5
New
Sep 12
First Quarter
Sep 19
Full

Hourly Weather History & Observations

Time (PDT) Temp. Heat Index Dew Point Humidity Pressure Visibility Wind Dir Wind Speed Gust Speed Precip Events Conditions
12:53 AM 60.1 °F - 52.0 °F 75% 29.85 in 10.0 mi SSE 12.7 mph - N/A   Clear
1:53 AM 59.0 °F - 53.1 °F 81% 29.85 in 10.0 mi SE 10.4 mph - N/A   Clear
2:53 AM 57.9 °F - 53.1 °F 84% 29.85 in 10.0 mi SE 10.4 mph - N/A   Clear
3:53 AM 57.9 °F - 53.1 °F 84% 29.84 in 10.0 mi SE 10.4 mph - N/A   Clear
4:53 AM 57.0 °F - 53.1 °F 87% 29.85 in 10.0 mi SE 8.1 mph - N/A   Clear
5:53 AM 57.0 °F - 53.1 °F 87% 29.85 in 10.0 mi SE 8.1 mph - N/A   Clear
6:53 AM 55.9 °F - 53.1 °F 90% 29.86 in 10.0 mi ESE 5.8 mph - N/A   Clear
7:53 AM 59.0 °F - 55.0 °F 87% 29.87 in 10.0 mi SE 5.8 mph - N/A   Partly Cloudy
8:53 AM 62.1 °F - 54.0 °F 75% 29.88 in 10.0 mi SSE 5.8 mph - N/A   Clear
9:53 AM 66.0 °F - 54.0 °F 65% 29.88 in 10.0 mi Variable 3.5 mph - N/A   Clear
10:53 AM 69.1 °F - 54.0 °F 58% 29.88 in 10.0 mi SSE 4.6 mph - N/A   Clear
11:53 AM 73.9 °F - 55.0 °F 52% 29.87 in 10.0 mi Calm Calm - N/A   Clear
12:53 PM 78.1 °F - 57.0 °F 48% 29.85 in 10.0 mi WSW 4.6 mph - N/A   Clear
1:53 PM 82.0 °F 81.6 °F 55.9 °F 41% 29.83 in 10.0 mi Calm Calm - N/A   Clear
2:53 PM 86.0 °F 84.7 °F 55.9 °F 36% 29.80 in 10.0 mi South 4.6 mph - N/A   Clear
3:53 PM 89.1 °F - 50.0 °F 26% 29.77 in 10.0 mi SW 4.6 mph - N/A   Partly Cloudy
4:53 PM 90.0 °F - 51.1 °F 26% 29.75 in 10.0 mi SSW 8.1 mph - N/A   Partly Cloudy
5:53 PM 88.0 °F - 50.0 °F 27% 29.74 in 10.0 mi South 12.7 mph - N/A   Partly Cloudy
6:53 PM 84.0 °F 82.5 °F 53.1 °F 34% 29.73 in 10.0 mi South 12.7 mph - N/A   Partly Cloudy
7:53 PM 77.0 °F - 55.9 °F 48% 29.72 in 10.0 mi South 11.5 mph - N/A   Partly Cloudy
8:53 PM 73.9 °F - 55.0 °F 52% 29.73 in 10.0 mi SSE 10.4 mph - N/A   Partly Cloudy
9:53 PM 71.1 °F - 55.0 °F 57% 29.74 in 10.0 mi South 11.5 mph - N/A   Clear
10:53 PM 66.9 °F - 55.0 °F 66% 29.75 in 10.0 mi South 11.5 mph - N/A   Clear
11:53 PM 64.9 °F - 55.0 °F 70% 29.76 in 10.0 mi SSE 9.2 mph - N/A   Clear